| time (UTC) | temp F | wind direction | speed MPH | gust MPH | rain 1hr in | rain 24hr in | rain mn in | humidity % | barometer mb |
| 20260504044832 | 41 | 0.0 | 0.0 | 0.00 | 0.00 | 0.00 | 96 | 1015.9 | |
| 20260504043819 | 41 | 0.0 | 0.0 | 0.00 | 0.00 | 0.00 | 93 | 1015.9 | |
| 20260504042840 | 41 | 0.0 | 0.0 | 0.00 | 0.00 | 0.00 | 93 | 1015.8 | |
| 20260504041821 | 41 | 0.0 | 0.0 | 0.00 | 0.00 | 0.00 | 92 | 1015.6 | |
| 20260504040823 | 41 | 0.0 | 0.0 | 0.00 | 0.00 | 0.00 | 91 | 1015.6 | |
| 20260504035823 | 42 | 0.0 | 0.0 | 0.00 | 0.00 | 0.00 | 90 | 1015.5 | |
| 20260504034825 | 42 | 0.0 | 0.0 | 0.00 | 0.00 | 0.00 | 90 | 1015.3 | |
| 20260504033826 | 42 | 0.0 | 0.0 | 0.00 | 0.00 | 0.00 | 90 | 1015.3 | |
| 20260504032827 | 43 | 0.0 | 0.0 | 0.00 | 0.00 | 0.00 | 89 | 1015.3 | |
| 20260504031822 | 43 | 0.0 | 0.0 | 0.00 | 0.00 | 0.00 | 90 | 1015.3 | |
| 20260504030818 | 43 | 0.0 | 0.0 | 0.00 | 0.00 | 0.00 | 87 | 1015.3 | |
| 20260504025831 | 44 | 0.0 | 0.0 | 0.00 | 0.00 | 0.00 | 89 | 1015.3 | |
| 20260504024833 | 44 | 0.0 | 0.0 | 0.00 | 0.00 | 0.00 | 86 | 1015.1 | |
| 20260504023830 | 45 | 0.0 | 0.0 | 0.00 | 0.00 | 0.00 | 84 | 1015.1 | |
| 20260504022831 | 45 | 0.0 | 0.0 | 0.00 | 0.00 | 0.00 | 84 | 1015.1 | |
| 20260504021827 | 45 | 0.0 | 0.0 | 0.00 | 0.00 | 0.00 | 83 | 1015.3 | |
| 20260504020828 | 46 | 0.0 | 0.0 | 0.00 | 0.00 | 0.00 | 80 | 1015.1 | |
| 20260504015829 | 47 | 0.0 | 0.0 | 0.00 | 0.00 | 0.00 | 78 | 1015.1 | |
| 20260504014830 | 47 | 0.0 | 0.0 | 0.00 | 0.00 | 0.00 | 75 | 1015.0 | |
| 20260504013831 | 48 | 0.0 | 0.0 | 0.00 | 0.00 | 0.00 | 75 | 1015.0 | |
| 20260504012815 | 48 | 0.0 | 0.0 | 0.00 | 0.00 | 0.00 | 73 | 1014.9 | |
| 20260504011817 | 48 | 0.0 | 0.0 | 0.00 | 0.00 | 0.00 | 69 | 1014.8 | |
| 20260504010818 | 49 | 0.0 | 0.0 | 0.00 | 0.00 | 0.00 | 66 | 1014.6 | |
| 20260504005819 | 50 | 0.0 | 0.0 | 0.00 | 0.00 | 0.00 | 66 | 1014.6 | |
| 20260504004820 | 51 | 0.0 | 0.0 | 0.00 | 0.00 | 0.00 | 63 | 1014.5 | |
| 20260504003839 | 51 | 0.0 | 0.0 | 0.00 | 0.00 | 0.00 | 61 | 1014.5 | |
| 20260504002820 | 52 | 0.0 | 0.0 | 0.00 | 0.00 | 0.00 | 58 | 1014.3 | |
| 20260504001822 | 53 | 0.0 | 0.0 | 0.00 | 0.00 | 0.00 | 56 | 1014.3 | |
| 20260504000823 | 54 | 0.0 | 0.0 | 0.00 | 0.00 | 0.00 | 54 | 1014.1 | |
| 20260503235818 | 55 | 0.0 | 0.0 | 0.00 | 0.00 | 0.00 | 52 | 1014.0 | |
| 20260503234826 | 57 | 0.0 | 0.0 | 0.00 | 0.00 | 0.00 | 51 | 1013.7 | |
| 20260503233827 | 58 | 0.0 | 0.0 | 0.00 | 0.00 | 0.00 | 49 | 1013.7 | |
| 20260503232828 | 58 | 0.0 | 0.0 | 0.00 | 0.00 | 0.00 | 47 | 1013.7 | |
| 20260503231830 | 59 | 0.0 | 0.0 | 0.00 | 0.00 | 0.00 | 45 | 1013.8 | |
| 20260503230831 | 60 | 23 | 0.0 | 3.0 | 0.00 | 0.00 | 0.00 | 45 | 1013.8 |
| 20260503225833 | 60 | 0.0 | 0.0 | 0.00 | 0.00 | 0.00 | 45 | 1013.8 | |
| 20260503224816 | 60 | 0.0 | 0.0 | 0.00 | 0.00 | 0.00 | 45 | 1013.7 | |
| 20260503223829 | 60 | 0.0 | 3.0 | 0.00 | 0.00 | 0.00 | 44 | 1013.7 | |
| 20260503222830 | 61 | 225 | 0.0 | 2.0 | 0.00 | 0.00 | 0.00 | 43 | 1013.7 |
| 20260503221831 | 61 | 59 | 1.0 | 3.0 | 0.00 | 0.00 | 0.00 | 44 | 1013.7 |
| 20260503220832 | 61 | 150 | 1.0 | 4.0 | 0.00 | 0.00 | 0.00 | 43 | 1013.7 |
| 20260503215815 | 62 | 45 | 1.0 | 3.0 | 0.00 | 0.00 | 0.00 | 42 | 1013.8 |
| 20260503214816 | 62 | 45 | 1.0 | 5.0 | 0.00 | 0.00 | 0.00 | 43 | 1013.7 |
| 20260503213818 | 62 | 117 | 2.0 | 3.0 | 0.00 | 0.00 | 0.00 | 42 | 1013.7 |
| 20260503212832 | 62 | 133 | 2.0 | 5.0 | 0.00 | 0.00 | 0.00 | 42 | 1013.7 |
| 20260503211825 | 62 | 338 | 1.0 | 3.0 | 0.00 | 0.00 | 0.00 | 43 | 1013.7 |
| 20260503210820 | 62 | 146 | 2.0 | 5.0 | 0.00 | 0.00 | 0.00 | 41 | 1013.7 |
| 20260503205815 | 63 | 1.0 | 2.0 | 0.00 | 0.00 | 0.00 | 42 | 1013.8 | |
| 20260503204836 | 64 | 203 | 0.0 | 2.0 | 0.00 | 0.00 | 0.00 | 42 | 1013.8 |
| 20260503203815 | 64 | 158 | 2.0 | 4.0 | 0.00 | 0.00 | 0.00 | 42 | 1013.8 |
| 20260503202816 | 64 | 1.0 | 3.0 | 0.00 | 0.00 | 0.00 | 43 | 1013.9 | |
| 20260503201817 | 64 | 349 | 1.0 | 2.0 | 0.00 | 0.00 | 0.00 | 43 | 1014.1 |
| 20260503200818 | 63 | 149 | 4.0 | 4.0 | 0.00 | 0.00 | 0.00 | 41 | 1014.3 |
| 20260503195820 | 63 | 180 | 2.0 | 4.0 | 0.00 | 0.00 | 0.00 | 44 | 1014.3 |
| 20260503194821 | 64 | 73 | 4.0 | 6.0 | 0.00 | 0.00 | 0.00 | 42 | 1014.5 |
| 20260503193825 | 64 | 103 | 1.0 | 3.0 | 0.00 | 0.00 | 0.00 | 43 | 1014.5 |
| 20260503192825 | 63 | 61 | 2.0 | 4.0 | 0.00 | 0.00 | 0.00 | 43 | 1014.5 |
| 20260503191825 | 62 | 121 | 2.0 | 4.0 | 0.00 | 0.00 | 0.00 | 45 | 1014.6 |
| 20260503190827 | 63 | 23 | 2.0 | 4.0 | 0.00 | 0.00 | 0.00 | 44 | 1014.8 |
| 20260503185821 | 62 | 113 | 2.0 | 7.0 | 0.00 | 0.00 | 0.00 | 46 | 1014.8 |
| 20260503184816 | 63 | 157 | 1.0 | 3.0 | 0.00 | 0.00 | 0.00 | 43 | 1015.0 |
| 20260503183841 | 63 | 203 | 3.0 | 6.0 | 0.00 | 0.00 | 0.00 | 45 | 1015.1 |
| 20260503182823 | 62 | 39 | 2.0 | 4.0 | 0.00 | 0.00 | 0.00 | 44 | 1015.3 |
| 20260503181824 | 63 | 122 | 2.0 | 4.0 | 0.00 | 0.00 | 0.00 | 44 | 1015.3 |
| 20260503180825 | 62 | 115 | 3.0 | 5.0 | 0.00 | 0.00 | 0.00 | 46 | 1015.3 |
| 20260503175826 | 62 | 315 | 1.0 | 2.0 | 0.00 | 0.00 | 0.00 | 45 | 1015.4 |
| 20260503174827 | 60 | 167 | 4.0 | 7.0 | 0.00 | 0.00 | 0.00 | 45 | 1015.4 |
| 20260503173828 | 60 | 78 | 3.0 | 6.0 | 0.00 | 0.00 | 0.00 | 46 | 1015.4 |
| 20260503172830 | 60 | 66 | 3.0 | 5.0 | 0.00 | 0.00 | 0.00 | 44 | 1015.5 |
| 20260503171825 | 59 | 164 | 2.0 | 4.0 | 0.00 | 0.00 | 0.00 | 46 | 1015.5 |
| 20260503170840 | 59 | 63 | 2.0 | 5.0 | 0.00 | 0.00 | 0.00 | 45 | 1015.8 |
| 20260503150831 | 56 | 0.0 | 1.0 | 0.00 | 0.00 | 0.00 | 55 | 1016.3 | |
| 20260503130821 | 49 | 348 | 3.0 | 5.0 | 0.00 | 0.00 | 0.00 | 67 | 1016.3 |
| 20260503080824 | 42 | 0.0 | 0.0 | 0.00 | 0.00 | 0.00 | 83 | 1013.4 | |
| 20260503072829 | 43 | 0.0 | 2.0 | 0.00 | 0.00 | 0.00 | 83 | 1012.9 | |
| 20260503071824 | 42 | 45 | 0.0 | 1.0 | 0.00 | 0.00 | 0.00 | 85 | 1012.9 |
| 20260503070819 | 42 | 68 | 1.0 | 2.0 | 0.00 | 0.00 | 0.00 | 85 | 1012.9 |
| 20260503054822 | 42 | 0.0 | 0.0 | 0.00 | 0.00 | 0.00 | 85 | 1013.0 | |
| 20260503053824 | 42 | 0.0 | 0.0 | 0.00 | 0.00 | 0.00 | 84 | 1013.0 | |
| 20260503052825 | 43 | 0.0 | 0.0 | 0.00 | 0.00 | 0.00 | 82 | 1013.0 | |
| 20260503051826 | 44 | 0.0 | 0.0 | 0.00 | 0.00 | 0.00 | 82 | 1012.9 | |
| 20260503050827 | 44 | 0.0 | 0.0 | 0.00 | 0.00 | 0.00 | 79 | 1012.8 | |
| 20260503045829 | 45 | 0.0 | 0.0 | 0.00 | 0.00 | 0.00 | 78 | 1013.0 |